Weather History for KFFM - February, 2012

Change the Weather History Date:

Wednesday, February 22, 2012

  Actual Average Record
Temperature  
Mean Temperature 20 °F -  
Max Temperature 28 °F 30 °F 56 °F (1961)
Min Temperature 12 °F 10 °F -20 °F (2015)
Degree Days  
Heating Degree Days 45    
Moisture  
Dew Point 17 °F    
Average Humidity 91    
Maximum Humidity 100    
Minimum Humidity 74    
Precipitation  
Precipitation 0.00 in - - ()
Sea Level Pressure  
Sea Level Pressure 29.49 in    
Wind  
Wind Speed 0 mph (North)    
Max Wind Speed 0 mph    
Max Gust Speed -    
Visibility 8 miles    
Events Fog    
Averages and records for this station are not official NWS values.
T = Trace of Precipitation, MM = Missing Value Source: NWS Daily Summary

Daily Weather History Graph

Daily Weather History Graph

Search for Another Location

Airport or City:

Trip Planner

Search our weather history database for the weather conditions in past years. The results will help you decide how hot, cold, wet, or windy it might be!

Date:

Astronomy

Feb. 22, 2012 Rise Set
Actual Time 7:16 AM CST 6:00 PM CST
Civil Twilight 6:46 AM CST 6:30 PM CST
Nautical Twilight 6:11 AM CST 7:05 PM CST
Astronomical Twilight 5:36 AM CST 7:40 PM CST
Moon 7:10 AM CST (2/22) 7:15 PM CST (2/22)
Length of Visible Light 11h 44m
Length of Day
10h 43m
New Moon, 1% of the Moon is Illuminated
Feb 22
New Moon
Feb 29
First Quarter
Mar 8
Full
Mar 14
Last Quarter
Mar 22
New

Hourly Weather History & Observations

Time (CST) Temp. Windchill Dew Point Humidity Pressure Visibility Wind Dir Wind Speed Gust Speed Precip Events Conditions
12:13 AM 14.0 °F - 12.2 °F 93% 29.57 in 7.0 mi Calm Calm - N/A   Clear
12:33 AM 15.8 °F - 14.0 °F 93% 29.57 in 3.0 mi Calm Calm - N/A   Clear
12:53 AM 14.0 °F - 12.2 °F 93% 29.57 in 2.0 mi Calm Calm - N/A   Clear
1:13 AM 12.2 °F - 10.4 °F 92% 29.57 in 5.0 mi Calm Calm - N/A   Scattered Clouds
1:33 AM 12.2 °F - 10.4 °F 92% 29.57 in 5.0 mi Calm Calm - N/A   Clear
1:54 AM 12.2 °F - 10.4 °F 92% 29.57 in 0.8 mi Calm Calm - N/A   Mist
2:13 AM 12.2 °F - 10.4 °F 92% 29.57 in 0.5 mi Calm Calm - N/A Fog Light Freezing Fog
2:33 AM 12.2 °F - 12.2 °F 100% 29.56 in 0.8 mi Calm Calm - N/A   Mist
2:53 AM 12.2 °F - 12.2 °F 100% 29.55 in 1.5 mi Calm Calm - N/A   Mist
3:13 AM 12.2 °F - 12.2 °F 100% 29.55 in 7.0 mi Calm Calm - N/A   Clear
3:33 AM 12.2 °F - 10.4 °F 92% 29.55 in 0.8 mi Calm Calm - N/A   Mist
3:53 AM 12.2 °F - 12.2 °F 100% 29.54 in 7.0 mi Calm Calm - N/A   Clear
4:13 AM 12.2 °F - 12.2 °F 100% 29.54 in 7.0 mi Calm Calm - N/A   Clear
4:33 AM 12.2 °F - 10.4 °F 92% 29.53 in 7.0 mi Calm Calm - N/A   Clear
4:53 AM 12.2 °F - 10.4 °F 92% 29.52 in 10.0 mi Calm Calm - N/A   Clear
5:13 AM 12.2 °F - 12.2 °F 100% 29.52 in 10.0 mi Calm Calm - N/A   Clear
5:33 AM 12.2 °F - 10.4 °F 92% 29.52 in 10.0 mi Calm Calm - N/A   Clear
5:53 AM 12.2 °F - 10.4 °F 92% 29.52 in 10.0 mi Calm Calm - N/A   Clear
6:13 AM 12.2 °F - 12.2 °F 100% 29.52 in 10.0 mi Calm Calm - N/A   Clear
6:33 AM 12.2 °F - 10.4 °F 92% 29.52 in 10.0 mi Calm Calm - N/A   Clear
6:53 AM 12.2 °F - 12.2 °F 100% 29.52 in 10.0 mi Calm Calm - N/A   Clear
7:13 AM 14.0 °F - 12.2 °F 93% 29.51 in 10.0 mi Calm Calm - N/A   Clear
7:33 AM 14.0 °F - 12.2 °F 93% 29.50 in 10.0 mi Calm Calm - N/A   Clear
7:53 AM 15.8 °F - 14.0 °F 93% 29.50 in 10.0 mi Calm Calm - N/A   Clear
8:13 AM 15.8 °F - 14.0 °F 93% 29.50 in 10.0 mi Calm Calm - N/A   Scattered Clouds
8:33 AM 17.6 °F - 15.8 °F 93% 29.50 in 10.0 mi Calm Calm - N/A   Mostly Cloudy
8:53 AM 17.6 °F - 17.6 °F 100% 29.50 in 10.0 mi Calm Calm - N/A   Mostly Cloudy
9:13 AM 19.4 °F - 17.6 °F 93% 29.50 in 10.0 mi Calm Calm - N/A   Mostly Cloudy
9:33 AM 19.4 °F - 19.4 °F 100% 29.50 in 10.0 mi Calm Calm - N/A   Mostly Cloudy
9:53 AM 17.6 °F - 17.6 °F 100% 29.50 in 10.0 mi Calm Calm - N/A   Mostly Cloudy
10:13 AM 17.6 °F - 17.6 °F 100% 29.50 in 10.0 mi Calm Calm - N/A   Scattered Clouds
10:33 AM 19.4 °F - 17.6 °F 93% 29.50 in 10.0 mi Calm Calm - N/A   Scattered Clouds
10:53 AM 19.4 °F - 19.4 °F 100% 29.49 in 10.0 mi Calm Calm - N/A   Clear
10:59 AM 19.4 °F - 19.4 °F 100% 29.48 in 10.0 mi Calm Calm - N/A   Clear
11:21 AM 21.2 °F - 21.2 °F 100% 29.47 in 10.0 mi Calm Calm - N/A   Mostly Cloudy
11:41 AM 23.0 °F - 21.2 °F 93% 29.46 in 10.0 mi Calm Calm - N/A   Mostly Cloudy
12:01 PM 24.8 °F - 21.2 °F 86% 29.47 in 10.0 mi Calm Calm - N/A   Mostly Cloudy
12:21 PM 26.6 °F - 21.2 °F 80% 29.46 in 10.0 mi Calm Calm - N/A   Scattered Clouds
12:41 PM 26.6 °F - 21.2 °F 80% 29.45 in 10.0 mi Calm Calm - N/A   Clear
1:01 PM 26.6 °F - 21.2 °F 80% 29.45 in 10.0 mi Calm Calm - N/A   Mostly Cloudy
1:21 PM 26.6 °F - 21.2 °F 80% 29.44 in 10.0 mi Calm Calm - N/A   Mostly Cloudy
1:41 PM 26.6 °F - 21.2 °F 80% 29.44 in 10.0 mi Calm Calm - N/A   Mostly Cloudy
2:01 PM 26.6 °F - 21.2 °F 80% 29.43 in 10.0 mi Calm Calm - N/A   Overcast
2:21 PM 26.6 °F - 21.2 °F 80% 29.43 in 10.0 mi Calm Calm - N/A   Overcast
2:41 PM 28.4 °F - 21.2 °F 74% 29.42 in 10.0 mi Calm Calm - N/A   Overcast
3:01 PM 28.4 °F - 23.0 °F 80% 29.42 in 10.0 mi Calm Calm - N/A   Overcast
3:21 PM 28.4 °F - 23.0 °F 80% 29.41 in 10.0 mi Calm Calm - N/A   Overcast
3:41 PM 28.4 °F - 23.0 °F 80% 29.41 in 10.0 mi Calm Calm - N/A   Mostly Cloudy
4:01 PM 28.4 °F - 24.8 °F 86% 29.42 in 10.0 mi Calm Calm - N/A   Mostly Cloudy
4:21 PM 28.4 °F - 24.8 °F 86% 29.42 in 10.0 mi Calm Calm - N/A   Overcast
4:41 PM 28.4 °F - 24.8 °F 86% 29.41 in 10.0 mi Calm Calm - N/A   Overcast
5:01 PM 28.4 °F - 24.8 °F 86% 29.41 in 10.0 mi Calm Calm - N/A   Overcast
5:21 PM 28.4 °F - 26.6 °F 93% 29.41 in 10.0 mi Calm Calm - N/A   Overcast
5:41 PM 28.4 °F - 26.6 °F 93% 29.40 in 10.0 mi Calm Calm - N/A   Mostly Cloudy
6:01 PM 28.4 °F - 26.6 °F 93% 29.40 in 10.0 mi Calm Calm - N/A   Mostly Cloudy
6:21 PM 28.4 °F - 26.6 °F 93% 29.40 in 10.0 mi Calm Calm - N/A   Overcast
6:41 PM 28.4 °F - 26.6 °F 93% 29.41 in 10.0 mi Calm Calm - N/A   Overcast
7:01 PM 28.4 °F - 26.6 °F 93% 29.42 in 10.0 mi Calm Calm - N/A   Overcast
7:21 PM 28.4 °F - 26.6 °F 93% 29.42 in 10.0 mi Calm Calm - N/A   Overcast
7:41 PM 28.4 °F - 26.6 °F 93% 29.42 in 10.0 mi Calm Calm - N/A   Overcast
8:01 PM 28.4 °F - 26.6 °F 93% 29.42 in 10.0 mi Calm Calm - N/A   Overcast
8:21 PM 28.4 °F - 26.6 °F 93% 29.43 in 10.0 mi Calm Calm - N/A   Overcast
8:41 PM 26.6 °F - 26.6 °F 100% 29.43 in 10.0 mi Calm Calm - N/A   Overcast
9:01 PM 26.6 °F - 24.8 °F 93% 29.42 in 10.0 mi Calm Calm - N/A   Overcast
9:21 PM 28.4 °F - 24.8 °F 86% 29.41 in 10.0 mi Calm Calm - N/A   Overcast
9:41 PM 26.6 °F - 24.8 °F 93% 29.42 in 10.0 mi North 2.3 mph - N/A   Overcast
10:01 PM 26.6 °F 22.6 °F 23.0 °F 86% 29.42 in 10.0 mi North 3.5 mph - N/A   Overcast
10:21 PM 26.6 °F - 23.0 °F 86% 29.42 in 10.0 mi Calm Calm - N/A   Mostly Cloudy
10:41 PM 24.8 °F - 23.0 °F 93% 29.42 in 10.0 mi Calm Calm - N/A   Clear
11:01 PM 24.8 °F - 23.0 °F 93% 29.43 in 10.0 mi Calm Calm - N/A   Clear
11:21 PM 23.0 °F - 21.2 °F 93% 29.44 in 10.0 mi Calm Calm - N/A   Clear
11:41 PM 21.2 °F - 21.2 °F 100% 29.44 in 7.0 mi Calm Calm - N/A   Clear